sat.trackr.live / text

‹ back to catalog

ONEWEB-0450

NORAD 50504 · 2021-132AM

PAYLOAD ACTIVE UNKNOWN

§ Identity

Operator
Country
UK
Launch date
2021-12-27
Launch site
TYMSC
Launch vehicle
Mass (kg)
RCS (m²)

Purposes: comms

External: N2YO · Heavens-Above · Gunter

§ Orbital elements

Epoch: 2026-05-25T01:07:38.701344Z

Period
109.20 min
Inclination
87.9159°
Eccentricity
0.0001644
Mean motion
13.18686609 rev/d
Perigee alt
1,188.5 km
Apogee alt
1,191.0 km
Semi-major
7,567.9 km
B*
1.1015e-4
RAAN
340.0656°
Arg perigee
85.1555°
Mean anomaly
274.9765°
Rev number
21,855

§ Raw data

ONEWEB-04501 50504U 21132AM  26145.04697571  .00000056  00000+0  11015-3 0  99912 50504  87.9159 340.0656 0001644  85.1555 274.9765 13.18686609218552

JSON: /api/v1/satellites/50504 · /tle

For live sub-satellite position, see the globe view (requires WebGL).

§ Visibility from observer

Set your observer location to see the next 7 days of passes ≥ 10°. The values pass through the URL so the page stays shareable.

No JS? Fill the form by hand. The geolocation button needs JavaScript.